Location: Apollinopolis Magna
(24.9792°N, 32.8772°E)
Time: 12:18:14
(UTC+00:00)

Cosmos 2333 Rocket - Pass Details

Date: 02 March 2021
Orbit: 837 x 864 km, 70.8° (Epoch: 15 April)

Event Time Altitude Azimuth Distance (km) Brightness Sun altitude
Rises 17:10:51 0° 193° (SSW) 3,375 5.5 -18.8°
Reaches altitude 10° 17:13:17 10° 192° (SSW) 2,445 4.7 -19.4°
Maximum altitude 17:18:53 76° 107° (ESE) 869 2.0 -20.6°
Drops below altitude 10° 17:24:32 10° 22° (NNE) 2,470 4.4 -21.9°
Enters shadow 17:26:03 - 21° (NNE) 3,047 4.9 -22.3°
